Wind_Gust
2 4 6 11 11 9 9 13 17 18 17 13 12 13 10 7 10 13 13 11 10 11 12 12 12 13 13 14 12 13 13 14 14 13 14 14 13 13 13 12 11 13
3 5 6 6 9 11 13 15 14 13 14 13 10 10 12 6 10 10 11 11 12 16 12 11 10 12 12 13 15 15 13 10 12 12 13 13 13 13 13 14 13 10
8 8 11 15 17 17 16 14 13 11 12 15 15 13 17 12 10 8 10 13 15 13 11 11 11 12 13 9 10 15 15 13 13 11 13 15 12 14 13 13 11 12
16 10 8 9 13 14 9 11 12 14 13 14 15 17 16 13 12 12 12 13 12 9 12 13 13 11 13 12 12 11 13 15 15 14 13 10 11 12 12 11 10 10
13 6 4 9 14 14 10 11 13 15 18 17 10 12 15 13 12 10 12 13 14 15 16 15 13 12 12 12 12 14 15 13 11 12 12 12 10 11 11 12 12 12
7 5 8 12 14 13 11 11 13 10 13 13 15 13 13 12 11 11 13 14 15 17 15 13 12 12 12 11 12 13 14 13 11 12 12 12 11 9 11 11 12 12
11 10 10 12 14 13 15 16 15 9 13 16 12 15 14 13 13 13 13 13 13 14 15 14 13 11 11 11 11 11 15 15 13 14 13 11 12 10 9 10 11 12
13 12 12 15 18 14 16 16 11 6 10 12 16 13 12 14 14 13 13 13 13 13 12 8 10 12 11 12 14 12 9 10 9 11 11 11 11 11 10 10 10 11
11 11 13 14 16 14 13 12 7 12 11 14 12 9 13 16 15 14 14 15 15 15 13 12 12 13 13 13 14 15 15 12 11 12 11 12 11 11 12 11 10 10
8 9 12 14 14 10 12 12 11 14 13 13 9 9 13 11 12 14 14 14 14 14 14 13 13 10 11 13 14 13 12 11 11 11 11 11 12 11 12 13 12 10
10 9 8 8 11 10 12 12 12 12 13 14 11 11 12 11 11 12 14 14 15 16 15 14 12 12 12 14 14 11 14 13 12 12 11 11 11 12 11 12 11 12
13 12 11 11 11 7 10 12 14 17 17 17 16 15 14 14 14 14 15 15 14 14 14 12 11 14 14 14 13 12 16 13 11 12 11 10 10 10 11 11 12 11
15 14 14 11 11 9 10 13 16 17 19 20 17 15 16 16 15 14 14 15 14 12 13 13 14 13 13 14 12 13 14 12 11 10 9 9 9 9 10 10 10 10
17 14 13 14 14 12 9 13 16 17 18 15 15 17 18 17 17 16 13 13 13 13 10 11 12 11 11 12 12 11 11 11 11 10 10 8 8 7 8 8 7 7
21 19 13 12 14 15 13 13 14 17 17 16 17 18 15 12 12 14 14 11 9 10 10 11 13 13 12 13 11 9 10 11 11 11 11 10 8 7 7 8 7 7
21 20 17 13 13 13 14 15 15 17 17 16 17 16 16 16 16 12 14 15 14 11 10 9 9 8 7 10 9 13 11 10 10 10 10 10 11 10 9 8 7 7
19 20 18 14 13 13 12 14 16 15 14 14 13 13 13 15 16 16 14 13 15 15 13 10 8 7 5 6 9 11 11 11 12 10 9 10 11 12 12 11 9 8
20 19 18 14 12 12 12 9 12 10 10 11 12 9 9 12 14 14 14 13 12 13 13 11 8 3 4 6 8 11 9 12 10 12 10 10 11 12 11 11 10 9
21 19 18 11 6 7 5 2 5 9 12 13 12 11 11 13 12 13 12 10 14 16 13 10 7 2 5 6 8 10 10 10 11 11 13 12 11 11 11 11 10 10
22 19 18 16 12 10 8 7 9 9 10 9 12 15 15 12 12 12 11 11 12 15 14 11 7 3 6 10 12 13 15 13 13 14 13 13 12 11 11 10 9 11
22 20 19 17 16 14 15 15 12 12 14 12 13 16 16 15 13 11 10 11 11 12 15 12 8 6 10 13 15 17 18 14 16 16 16 14 12 10 10 10 9 10
21 20 19 18 16 16 18 17 16 13 13 15 17 18 17 17 17 15 12 11 10 10 14 13 12 11 10 14 18 18 18 17 16 17 16 14 13 10 10 9 8 9
22 19 19 18 17 17 19 19 16 14 15 14 19 17 19 19 17 15 11 13 13 11 15 14 13 10 11 12 16 20 16 17 17 17 15 15 13 10 11 10 10 8
22 19 18 18 19 19 18 17 16 14 17 15 18 17 18 15 15 17 15 16 15 13 10 15 14 11 11 11 11 13 16 19 16 19 15 15 14 11 11 12 13 15
21 20 17 18 19 18 17 16 15 14 14 15 17 16 16 14 15 16 16 17 17 15 15 16 14 13 14 13 12 11 16 17 18 19 18 13 14 14 11 11 12 14
21 20 19 19 19 18 17 15 14 15 17 16 16 15 18 19 20 19 20 17 16 17 18 15 15 15 15 16 13 12 9 15 15 21 19 16 12 14 15 11 12 12
Wind_Speed
1 1 2 5 6 6 6 8 9 10 9 7 5 7 6 4 6 8 7 5 6 7 8 7 7 7 7 8 7 8 8 8 8 7 8 8 8 8 7 8 8 8
2 3 5 3 4 7 7 7 6 7 8 8 6 6 8 5 6 4 4 5 7 8 7 7 7 6 6 7 9 8 7 6 7 6 8 9 7 8 8 9 9 6
6 6 7 10 10 9 5 5 5 6 8 9 9 8 9 7 6 5 5 6 7 6 7 7 7 7 8 6 3 4 6 7 8 6 7 9 7 8 8 8 6 8
6 4 4 6 7 7 6 7 6 6 6 6 9 9 9 7 6 6 7 8 6 6 7 8 8 7 7 7 7 7 7 8 8 8 8 6 7 7 7 6 6 6
6 5 3 6 8 8 6 6 5 5 7 5 5 7 8 8 7 6 7 7 7 8 7 8 8 7 7 7 7 7 7 7 7 7 7 7 6 7 6 7 7 7
5 3 3 7 8 7 5 5 6 5 7 6 7 6 7 7 7 7 7 8 8 7 7 6 7 7 7 7 7 7 6 7 7 7 7 7 6 6 5 6 7 7
6 5 6 7 8 6 7 7 4 4 7 9 5 7 7 7 8 8 8 8 7 6 6 6 7 7 6 6 6 7 8 9 8 9 8 6 7 6 6 7 7 7
7 7 7 8 11 8 6 6 4 3 6 6 7 6 7 8 8 8 8 8 8 8 7 6 4 6 6 7 7 7 4 6 5 6 7 7 7 7 7 6 6 7
6 7 7 9 10 8 7 7 5 8 7 7 6 5 7 9 9 9 9 9 9 9 8 7 7 7 7 8 8 8 9 8 6 8 7 7 7 7 8 6 6 6
5 5 8 9 8 6 8 8 7 8 6 7 6 6 7 6 8 9 9 9 9 9 9 8 8 7 7 8 8 8 8 7 7 7 7 7 7 7 7 7 7 6
7 6 5 5 6 5 8 7 7 7 7 9 7 7 7 7 7 8 9 9 9 10 9 8 7 8 8 8 7 7 8 8 7 7 7 7 7 7 7 8 7 7
9 8 7 6 5 4 6 7 8 9 9 10 9 9 9 9 9 8 9 10 9 9 9 7 7 9 8 6 6 8 9 8 7 7 7 7 6 6 7 7 7 7
10 9 8 7 5 5 6 8 9 10 11 11 8 9 9 9 9 9 8 9 9 8 8 8 8 8 7 7 7 8 9 7 7 6 6 6 6 6 6 7 7 6
11 9 8 8 8 6 6 8 9 10 10 9 9 10 10 10 10 9 8 8 8 8 7 7 7 7 7 7 7 7 7 7 7 6 6 6 5 5 5 5 4 4
12 11 8 7 8 8 8 8 9 10 10 10 10 11 9 7 7 8 8 7 6 6 7 7 8 7 7 7 7 6 6 7 7 7 7 6 5 4 4 5 4 4
11 11 10 8 8 8 8 9 9 9 9 9 10 9 9 10 10 7 8 9 8 7 6 5 5 4 6 9 8 7 7 6 5 6 6 6 7 6 5 5 4 3
9 10 10 9 8 8 7 8 9 8 8 8 8 8 7 7 9 10 9 8 9 9 8 6 5 4 5 6 8 11 8 6 7 6 6 6 7 7 7 6 5 4
11 10 9 8 7 7 7 6 7 7 6 6 6 5 5 6 7 8 9 8 7 7 7 6 5 3 4 4 7 10 8 7 6 6 6 6 6 7 6 6 6 5
12 11 11 7 4 5 3 2 2 2 5 7 6 5 6 7 6 8 8 7 8 9 7 6 4 2 4 4 6 8 9 8 6 7 7 7 7 6 6 6 5 5
13 11 10 9 7 6 5 4 5 5 6 5 5 6 7 6 5 7 7 7 7 8 8 7 5 2 5 8 10 11 13 10 8 9 8 8 7 6 6 5 4 6
13 12 10 10 10 8 9 9 8 7 8 7 6 6 6 7 7 5 6 5 4 6 8 7 5 6 8 11 12 14 15 12 9 9 9 8 7 6 5 4 5 5
13 12 11 11 10 10 11 10 10 8 7 6 7 7 8 8 9 8 5 4 4 6 8 8 7 10 9 11 15 15 16 10 9 9 8 7 7 5 5 4 4 5
13 11 11 11 10 10 11 10 9 9 7 5 9 9 10 10 8 7 7 6 7 7 8 8 8 8 10 10 14 17 13 9 9 8 7 7 6 5 5 5 5 4
13 12 10 11 11 11 10 10 9 8 7 5 9 10 10 8 8 8 9 8 8 8 6 8 8 7 9 9 10 12 13 11 9 10 9 7 6 6 5 5 8 11
12 12 10 10 11 10 9 10 9 8 6 7 9 10 9 8 9 8 9 9 9 8 12 9 8 9 11 11 11 10 11 9 9 10 10 7 6 6 5 5 5 9
11 10 11 10 10 11 10 8 6 7 9 10 9 8 8 10 10 10 12 10 10 10 9 8 9 9 11 13 11 11 8 8 8 11 10 9 6 5 6 6 6 6
Wind_Direction
340 15 221 256 248 252 202 177 179 185 180 172 199 274 278 227 192 190 190 154 146 159 166 176 197 203 200 206 211 179 188 208 205 175 180 180 179 173 180 181 181 191
221 153 164 226 247 234 220 213 187 175 173 176 176 209 243 226 222 186 142 154 189 186 168 176 192 198 208 215 197 186 197 192 208 179 176 183 180 177 184 185 190 181
227 212 197 198 213 225 232 251 226 199 185 163 164 196 229 228 207 146 149 187 207 187 178 180 192 184 179 202 213 206 214 191 193 188 177 186 173 182 187 183 185 180
267 269 253 235 227 224 183 204 217 229 226 166 168 184 209 224 218 175 163 193 204 191 186 186 197 190 179 191 183 184 204 218 201 178 177 171 178 176 177 173 176 176
241 245 227 228 231 227 209 196 200 221 240 224 172 178 190 201 205 184 170 191 204 205 199 192 187 188 179 179 176 192 201 214 189 178 167 171 172 169 166 163 168 176
218 210 223 238 241 234 235 223 197 194 221 230 213 192 190 188 193 188 182 191 209 209 202 199 186 186 180 176 169 189 192 212 190 169 167 168 168 170 158 169 165 170
232 207 231 250 259 249 240 244 234 194 215 225 208 205 187 189 194 192 188 193 204 211 203 202 194 184 174 170 175 176 195 204 185 171 168 166 160 165 170 168 174 175
246 223 224 234 248 242 236 250 257 233 228 228 219 208 184 194 197 195 185 178 179 187 192 178 192 194 177 182 187 176 186 223 163 151 171 162 158 165 169 177 178 185
254 230 217 222 235 244 238 232 223 232 206 212 214 194 203 196 192 186 179 171 175 184 186 178 179 194 191 188 184 173 185 204 171 173 168 164 169 169 170 169 176 189
285 250 227 226 228 231 245 228 206 229 211 212 201 187 204 206 190 181 170 170 171 174 181 183 178 177 193 193 182 172 171 195 177 179 175 172 173 167 165 168 177 180
296 276 264 243 231 204 231 239 225 219 217 217 199 189 200 195 195 177 164 170 175 177 179 184 176 168 189 190 181 158 171 204 181 176 176 175 178 172 168 172 174 187
300 290 274 261 249 212 199 214 226 222 216 219 206 193 189 195 189 184 171 175 178 178 180 172 163 178 187 185 176 170 184 192 175 173 174 175 176 171 168 172 179 184
301 298 292 282 258 226 210 204 209 216 216 216 208 198 190 189 189 181 180 177 175 173 179 170 174 181 180 181 181 174 184 181 167 169 166 168 173 172 173 173 182 181
313 295 282 279 276 260 223 213 210 214 217 212 200 200 195 189 182 180 175 173 169 171 170 163 169 174 174 177 185 172 157 175 163 163 161 163 164 172 165 160 158 163
321 310 286 267 264 266 262 244 224 215 213 210 206 203 190 170 172 169 155 147 136 143 147 160 168 170 170 175 169 163 168 158 164 168 164 158 146 129 110 113 115 136
321 316 299 269 259 255 250 249 242 228 215 209 210 201 181 159 160 163 155 146 140 139 140 153 150 141 163 171 169 164 167 169 160 167 162 151 138 122 97 86 96 97
319 320 309 282 262 257 253 244 239 227 211 199 197 195 170 156 159 156 148 150 152 148 145 141 135 139 152 166 174 168 160 159 163 160 155 142 140 136 130 121 97 85
327 317 309 286 256 247 249 252 240 217 197 172 158 158 140 138 151 147 141 142 140 136 133 134 132 138 150 170 172 168 162 154 146 138 125 117 121 122 122 125 121 102
336 325 318 312 275 263 262 294 323 131 151 157 152 134 122 138 145 130 131 134 135 130 119 116 127 134 139 150 152 142 131 118 108 107 110 109 106 113 121 124 124 107
345 339 340 352 357 15 11 45 67 51 35 38 91 103 107 97 101 106 107 119 136 133 126 115 111 77 128 134 126 122 115 104 99 96 93 97 100 100 100 113 122 122
352 355 354 1 6 18 38 35 29 48 56 39 39 58 68 84 66 55 79 87 99 113 109 94 54 80 123 124 119 110 101 96 96 93 92 85 75 78 78 90 104 101
352 2 6 8 15 27 33 35 33 22 55 64 72 72 64 60 53 51 24 59 69 81 96 84 66 79 107 117 113 108 100 96 97 94 92 84 78 67 69 59 65 94
353 358 16 16 19 29 34 31 30 26 22 54 72 56 67 60 50 51 37 24 56 58 85 84 77 67 93 105 112 111 102 102 101 94 85 83 74 67 67 68 63 62
359 360 11 25 27 29 36 36 36 30 12 30 70 70 57 55 64 60 49 34 39 50 43 90 79 59 74 90 100 107 115 113 110 104 97 93 89 68 67 58 53 62
5 4 13 30 36 29 31 42 37 34 9 32 60 65 70 65 52 48 54 43 33 36 46 49 67 54 54 70 83 100 110 115 115 111 106 102 102 90 73 71 63 51
9 5 8 23 41 42 29 30 33 43 37 41 46 57 66 67 62 50 49 35 31 29 38 35 47 46 39 51 63 68 86 117 122 119 119 116 105 101 96 73 59 55